星链-3927 (STARLINK-3927 )

导读 | 豆包AI

STARLINK-3927是美国太空探索技术公司(SpaceX)星链(Starlink)卫星星座中的一颗卫星,于2022年5月13日发射。星链项目旨在构建全球卫星互联网星座,为全球偏远地区、海上和航空用户等提供高速低延迟的互联网服务,这颗卫星为推进星链网络覆盖发挥了相应作用。

Basic Information
目录编号:
52569
目录名称:
STARLINK-3927
国际标识:
2022-051AN
轨道中心:
EARTH
卫星名称:
星链-3927
卫星全名:
星链-3927 (STARLINK-3927 )
卫星状态:
在轨 (已飞行1402 天)
发射日期:
2022-05-13 UTC
国别 :
美国 (US)
星等 :
--
Orbit Information
数据来源 国际轨道数据 AOE轨道数据
星历时间 2026-03-14T19:15:43+0800
13小时前
查看轨道信息
2026-03-08T15:00:00+0800
6天前
查看轨道信息
半长轴 6917.868km 6917.891km
偏心率 0.0001335 0.0001579
轨道倾角 53.216° 53.214°
近地点辐角 89.804° 63.283°
升交点赤经 97.662° 125.394°
平近点角 270.311° 203.046°
近地点 538.807km 538.661km
远地点 540.655km 540.847km
周期 95.437分钟 95.438分钟
每日圈数 15.088442 15.088368
Detailed Information
固有亮度:
5
最大亮度:
2.5
卫星平台:
Starlink v1.5
覆盖范围:
全球
运营商:
太空探索技术公司
运营商所在国:
美国
制造商(研发单位):
太空探索技术公司
制造商所在国:
美国
使用方式:
暂无
Satellite Introduction
星链(Starlink)计划是由太空探索技术公司(SpaceX)提出的一个巨型低轨卫星互联网星座项目,计划在2019年至2024年间在太空搭建由约1.2万颗卫星组成的“星链”网络,其中1584颗将部署在地球上空550千米处的近地轨道,并从2020年开始工作。该卫星仍在工作。
2D Orbit Map
3D Orbit Map
Orbit Altitude Analysis Chart
Orbit Inclination Analysis Chart
Orbit Comprehensive Analysis Chart
View Comprehensive Chart